www.pogodaiklimat.ru

Погода и климат >> Архив погоды >> Россия >> Якутия >> Делянкир


ПОГОДА в Делянкире

  • Прогноз погоды в Делянкире
  • Монитор погоды в Делянкире
  • Климат города

АРХИВ ПОГОДЫ в Делянкире

Время (UTC), дата Ветер
(напр.,м/с)
 
Видим.   Явления Облачность Т
(С)
Тd
(С)
f
(%)
Тe
(С)
Тes
(С)
Комфортность P
(гПа)
Po
(гПа)
Тmin
(С)
Tmax
(С)
R
(мм)
R24
(мм)
S
(см)
00 11.11 СВ 1 50 км ясно -39.8 -44.1 63 -45 -45 опасность
обморожения
1054.5 938.9
03 11.11 З 1 50 км ясно -34.5 -38.1 70 -39 -39 опасность
обморожения
1051.5 938.7
06 11.11 З 1 50 км 3/0
[As trans]
-35.9 -40.1 65 -41 -41 опасность
обморожения
1051.6 938.1
09 11.11 штиль 0 50 км ясно -38.8 -43.2 63 -39 -39 опасность
обморожения
1052.9 937.9 -34.5
12 11.11 штиль 0 50 км ясно -38.8 -43.9 58 -39 -39 опасность
обморожения
1052.8 937.8
15 11.11 В 1 50 км 3/0
[As trans]
-37.9 -42.3 63 -43 -43 опасность
обморожения
1052.7 937.3
18 11.11 штиль 0 50 км ясно -38.7 -42.7 66 -39 -39 опасность
обморожения
1052.2 937.4
21 11.11 штиль 0 50 км ясно -38.5 -42.7 64 -39 -39 опасность
обморожения
1051.8 937.1 -39.3 32
00 12.11 штиль 0 50 км 3/0
[As trans]
-37.6 -41.9 64 -38 -38 опасность
обморожения
1050.1 936.0
03 12.11 З 1 50 км 4/0
[As trans Ci fib]
-33.9 -38.3 64 -38 -38 опасность
обморожения
1047.5 935.3
06 12.11 СЗ 1 50 км 8/0
[As trans Ci fib]
-32.2 -36.7 64 -37 -37 опасность
обморожения
1045.8 934.5
09 12.11 штиль 0 50 км 6/0
[As trans]
-33.4 -37.7 65 -33 -33 опасность
обморожения
1045.7 933.9 -31.8
12 12.11 С 1 50 км 10/0
[As trans]
-32.6 -36.2 70 -37 -37 опасность
обморожения
1043.4 933.1
15 12.11 штиль 0 50 км 10/0
[As trans Cs]
-30.7 -35.3 64 -31 -31 опасность
обморожения
1042.5 932.1
18 12.11 штиль 0 50 км 10/0
[As trans Cs]
-30.2 -34.7 65 -30 -30 1040.5 930.6
21 12.11 штиль 0 50 км 10/0
[As trans Cs]
-29.8 -34.3 65 -30 -30 1038.6 929.6 -33.6 32
00 13.11 В 1 50 км 8/0
[As trans Cs]
-28.4 -38.1 39 -32 -32 опасность
обморожения
1041.7 929.8 -34.7
03 13.11 Ю 1 50 км 10/0
[As trans Cs]
-27.6 -35.3 48 -31 -31 опасность
обморожения
1036.6 928.3
06 13.11 З 1 50 км 9/0
[As trans Ci fib]
-29.1 -33.7 64 -33 -33 опасность
обморожения
1036.6 927.6
09 13.11 В 1 50 км 4/0
[As trans Ci fib]
-36.7 -40.8 66 -42 -42 опасность
обморожения
1040.0 927.4 -27.6
12 13.11 В 1 50 км ясно -36.8 -41.1 64 -42 -42 опасность
обморожения
1039.9 927.3
15 13.11 В 1 50 км 10/0
[As trans Cs]
-37.0 -40.4 70 -42 -42 опасность
обморожения
1040.0 927.3
18 13.11 В 1 50 км 4/0
[As trans]
-35.7 -39.4 69 -40 -40 опасность
обморожения
1040.5 928.3
21 13.11 штиль 0 50 км 4/0
[As trans]
-35.7 -40.1 64 -36 -36 опасность
обморожения
1039.9 927.7 -37.2 32
00 14.11 штиль 0 50 км 8/0
[As trans Ci fib]
-34.7 -39.1 64 -35 -35 опасность
обморожения
1041.1 929.2
03 14.11 штиль 0 50 км 8/0
[As trans Ci sp]
-31.8 -35.5 70 -32 -32 опасность
обморожения
1039.5 929.1
06 14.11 СЗ 1 50 км 9/0
[As trans Ci sp]
-30.4 -34.1 70 -35 -35 опасность
обморожения
1038.7 929.0
09 14.11 ЮВ 1 50 км 6/0
[As trans Ci fib]
-31.5 -35.2 70 -36 -36 опасность
обморожения
1039.3 929.0 -30.1
12 14.11 С 1 50 км 4/0
[As trans]
-33.9 -37.5 70 -38 -38 опасность
обморожения
1039.4 928.1
15 14.11 С 1 50 км 3/0
[As trans]
-34.3 -37.8 70 -39 -39 опасность
обморожения
1039.4 927.9
18 14.11 С 1 50 км ясно -34.8 -38.4 70 -39 -39 опасность
обморожения
1039.4 927.7
21 14.11 С 1 50 км 10/0
[As trans Cs]
-32.7 -37.2 64 -37 -37 опасность
обморожения
1038.0 927.4 -39.7 32
00 15.11 З 1 50 км 10/0
[As op]
-31.7 -36.2 64 -36 -36 опасность
обморожения
1037.8 927.5
03 15.11 Ю 1 50 км 4/0
[As trans Ci fib]
-29.0 -32.8 70 -33 -33 опасность
обморожения
1035.5 926.7
06 15.11 штиль 0 50 км 10/0
[As op]
-29.8 -33.5 70 -30 -30 1033.8 924.8
09 15.11 В 1 50 км 8/0
[As trans]
-30.1 -33.9 69 -34 -34 опасность
обморожения
1034.3 925.1 -28.6
12 15.11 штиль 0 50 км 8/0
[As trans]
-30.2 -33.9 70 -30 -30 1033.4 924.4
15 15.11 штиль 0 50 км 8/0
[As trans]
-30.6 -34.4 69 -31 -31 опасность
обморожения
1032.4 923.3
18 15.11 штиль 0 20 км слабый снег 10/0
[As op]
-30.1 -33.9 69 -30 -30 1032.3 923.4
21 15.11 В 1 20 км слабый снег 10/0
[As op]
-29.8 -33.5 70 -34 -34 опасность
обморожения
1031.4 922.7 -30.6 0.0 32
00 16.11 В 1 50 км {снег} 10/0
[As op]
-29.1 -32.2 74 -33 -33 опасность
обморожения
1030.6 922.3
03 16.11 ЮЗ 1 50 км 9/0
[As trans]
-27.8 -31.0 74 -32 -32 опасность
обморожения
1029.8 922.1
06 16.11 штиль 0 50 км 10/0
[As op]
-27.4 -30.5 75 -27 -27 1028.7 921.3
09 16.11 З 1 50 км 10/0
[As trans Cs]
-27.1 -30.2 75 -31 -31 опасность
обморожения
1028.3 921.1 -27.1 0.0
12 16.11 З 1 50 км 10/0
[As op]
-29.2 -32.2 75 -33 -33 опасность
обморожения
1029.2 921.0
15 16.11 З 1 50 км 10/0
[As trans Cs]
-29.4 -32.4 75 -33 -33 опасность
обморожения
1029.1 920.8
18 16.11 штиль 0 50 км слабый снег 10/0
[As trans Cs]
-29.7 -32.8 74 -30 -30 1029.8 921.3
21 16.11 В 1 50 км {снег} 10/0
[As trans Cs]
-29.8 -33.5 70 -34 -34 опасность
обморожения
1029.0 920.5 -29.9 0.0 32
00 17.11 В 1 50 км 10/0
[As op]
-31.2 -35.0 69 -35 -35 опасность
обморожения
1029.4 920.4 -31.3
03 17.11 В 1 50 км 10/0
[As op]
-30.3 -33.4 74 -34 -34 опасность
обморожения
1029.9 921.1
06 17.11 штиль 0 50 км 10/0
[As op]
-31.1 -34.1 75 -31 -31 опасность
обморожения
1029.0 920.0
09 17.11 штиль 0 50 км 10/0
[As op]
-33.0 -36.0 74 -33 -33 опасность
обморожения
1031.4 921.4 -29.7
12 17.11 В 1 50 км 10/0
[As trans Cs]
-34.1 -37.1 74 -39 -39 опасность
обморожения
1031.1 920.5
15 17.11 штиль 0 50 км 10/0
[As trans Cs]
-34.7 -38.4 69 -35 -35 опасность
обморожения
1031.2 920.4
18 17.11 штиль 0 50 км 6/0
[As trans Cs]
-36.4 -40.1 68 -36 -36 опасность
обморожения
1032.5 920.8

 

Местоположение метеостанции Делянкир (Якутия, Россия): широта 63.83 долгота 145.60 высота над уровнем моря 801 м.

В архиве по умолчанию представлена погода в Делянкире за последнюю неделю. Архивные данные за месяц целиком и за предыдущие месяцы, начиная с января 2011 года, Вы можете получить, выбрав интересующий диапазон дат из раскрывающегося списка и нажав кнопку "Ввод!".


*Определитесь, кто Вы:
робот инопланетянин человек

Внимание! Время в таблицах - всемирное. Для получения местного времени необходимо прибавить поправку, которая в Делянкире равна 10 ч.

Смотрите также архив погоды в соседних городах и на ближайших метеорологических станциях:

Погода в Оймяконе (Якутия, Россия) (140 км)
Погода в Усть-Нере (Якутия, Россия) (144 км)
Погода в Сусумане (Магаданская область, Россия) (171 км)
Погода в Юртах (Якутия, Россия) (187 км)
Погода в Агаякане (Якутия, Россия) (201 км)
Погода в Колымской (Магаданская область, Россия) (242 км)
Погода в Ягодной (Магаданская область, Россия) (249 км)
Погода в Совхозе Эльген (Магаданская область, Россия) (275 км)
Погода в Озере Джека Лондона (Магаданская область, Россия) (277 км)
Погода в Восточной (Якутия, Россия) (305 км)

Пояснения к столбцам:

Ветер - указаны скорость ветра в м/с - средняя за 10 мин, порывы в срок и между сроками (в фигурных скобках) и направление, откуда дует ветер: С - северный, СВ - северо-восточный, В - восточный, ЮВ - юго-восточный, Ю - южный, ЮЗ - юго-западный, З - западный, СЗ - северо-западный.
Видимость - горизонтальная дальность видимости в метрах или километрах. При видимости от 1 до 10 км при отсутствии осадков обычно наблюдается дымка, при ухудшении видимости до 1 км и менее - туман. В сухую погоду видимость может ухудшаться дымом, пылью или мглою.
Явления - указаны атмосферные явления, наблюдавшиеся в срок или в последний час перед сроком; фигурными скобками обозначены явления, наблюдавшиеся между сроками (за 1-3 часа до срока); квадратными скобками обозначены град или гололедные отложения с указанием их диаметра в мм.
Облачность - указаны через наклонную черту общая и нижняя облачность в баллах и высота нижней границы облаков в метрах; квадратными скобками обозначены формы облаков: Ci - перистые, Cs - перисто-слоистые, Cc - перисто-кучевые, Ac - высококучевые, As - высокослоистые, Sc - слоисто-кучевые, Ns - слоисто-дождевые, Cu - кучевые, Cb - кучево-дождевые. Подробнее классификацию облаков см. в Атласе облаков (PDF).
T - Температура воздуха - температура, измеренная на высоте 2 м над землей.
Td - Температура точки росы - температура, при понижении до которой содержащийся в воздухе водяной пар достигнет насыщения.
f - Относительная влажность воздуха - влажноcть воздуха, измеренная на высоте 2 м над землей.
Te - Эффективная температура - температура, которую ощущает одетый по сезону человек в тени. Характеристика душности погоды. При расчете учитывается влияние влажности воздуха и скорости ветра на теплоощущения человека.
Tes - Эффективная температура на солнце - температура, которую ощущает человек, с поправкой на солнечный нагрев. Характеристика знойности погоды. Зависит от высоты солнца над горизонтом, облачности и скорости ветра. Ночью, в пасмурную погоду, а также при ветре 12 м/с и более поправка равна нулю.
P - Атмосферное давление - приведенное к уровню моря атмосферное давление.
Po - Атмосферное давление - измеренное на уровне метеостанции атмосферное давление.
Tmin - Минимальная температура - минимум температуры воздуха на высоте 2 м над землей.
Tmax - Максимальная температура - максимум температуры воздуха на высоте 2 м над землей.
R - Количество осадков - Количество выпавших осадков за период времени, мм. При наведении курсора мыши на число - период времени, за который выпало указанное количество осадков.
R24 - Количество осадков - Количество выпавших осадков за 24 часа, мм.
S - Снежный покров - Высота снежного покрова, см. При наведении курсора мыши на число - состояние снежного покрова и степень покрытия местности в баллах.